FENGYUN 1C DEB, 30714

Orbit data source: Space-Track

FENGYUN 1C DEB, 30714 is space debris in SSO originally from a launch on Mon, 10 May 1999 UTC launched from the Taiyaun Space Center, China (TSC). Fengyun 1C debris stems from the Chinese weather satellite Fengyun-1C, which was intentionally destroyed by a Chinese anti-satellite missile in 2007. This event dramatically increased the amount of space debris, with thousands of trackable fragments posing hazards to satellites and human spaceflight. The Fengyun 1C debris cloud has become a focal point in discussions about space sustainability and the need for international regulations to prevent the creation of new debris.

Loading next visibility...
Identifier
30714, 1999-025ARY
Orbit
SSO
Country
Flag of CNCN / PRC
Related business
Manufacturer
Unknown
Mission
Spacecraft
Bus & Motor
Unknown
Mass
Unknown
Launch date (UTC)
1999-05-10 (27 years ago)
Launch vehicle
Unknown
Launch site
Taiyaun Space Center, China (TSC)
Object type
Payload
Rocket body
Debris
Shape & HBR
Unknown shape, 0.1 m
Radar Cross Section
Medium (>0.1 m² and <1 m²)

Expand to show TLE details & history
Last TLE update: 10 hours ago

TLE from 10 hours ago
0 FENGYUN 1C DEB
1 30714U 99025ARY 26208.33958124  .00000759  00000-0  50033-3 0  9998
2 30714  98.8130 255.1222 0065807  12.7446 122.7818 14.03704218991711
Epoch: 2026-07-27T08:08Z
TLE epoch observation values (Epoch: 2026-07-27T08:08:59.819Z)
Latitude
43.28698°
Longitude
16.20141°
Altitude
913.461 km
Speed
7.386 km/s
True Right ascension
05h 33m 54s
True Declination
43° 07' 09"
Sunlit
Object was in daylight at epoch
Visualization orbit readout
Latitude
Unknown
Longitude
Unknown
Altitude
Unknown
Speed
Unknown
Apparent Right ascension
Unknown
Apparent Declination
Unknown
Sunlit
N/A
Visualization observer readout
Local Sidereal Time
07:11:41
Azimuth
Unknown
Elevation
Unknown
Doppler factor
Unknown
Orbital elements
Apogee altitude
925.933 km
Perigee altitude
830.43 km
Semi-major axis
7,256.318 km
Eccentricity
0.00658
Inclination
98.813°
RAAN
255.1222°
Arg. of periapsis
12.7446°
True anomaly
123.41297°
Mean anomaly
122.7818°
Eccentric anomaly
123.09767°
Mean motion
3.51131 °/min
Orbital period
102.53 mins
BSTAR
0.00050033
Loading maneuver chart data...
Computing Atmospheric mass density...

Documentation

Showing up to 5 results
|